Regional Weather Roundup
Issued by NWS Northern Indiana

Home | Current Version | Previous Version | Text Only | Print | Product List | Glossary Off
Versions: 1 2 3 4 5 6 7 8 9 10 11 12 13 14 15 16 17 18 19 20 21 22 23 24 25 26 27 28 29 30 31 32 33 34 35 36 37 38 39 40 41 42 43 44 45 46 47 48 49 50

000
ASUS43 KIWX 291200
RWRIWX

KIWX WEATHER ROUNDUP
NATIONAL WEATHER SERVICE NORTHERN INDIANA
700 AM EST THU JAN 29 2015

NOTE: "FAIR" INDICATES FEW OR NO CLOUDS BELOW 12,000 FEET WITH NO
SIGNIFICANT WEATHER AND/OR OBSTRUCTIONS TO VISIBILITY.

* THESE STATIONS ARE NOT UNDER NWS QUALITY CONTROL. THEY ALSO MAY NOT
  REPORT WEATHER SUCH AS PRECIPITATION OR FOG.

INZ001>027-291300-
NORTHERN INDIANA

CITY           SKY/WX    TMP DP  RH WIND       PRES   REMARKS
GARY*          MOCLDY    37  25  60 SE7       29.70S
SOUTH BEND     CLOUDY    36  26  67 S8        29.71F
6HR MIN TEMP:  32; 6HR MAX TEMP:  37; 6HR PCP:  0.02;

ELKHART*       CLOUDY    36  21  55 S6        29.72
GOSHEN         CLOUDY    36  26  67 S12       29.71F
6HR MIN TEMP:  30; 6HR MAX TEMP:  36; 6HR PCP:  0.04;

ANGOLA*        PTCLDY    30  25  80 S9        29.74F WCI  22
FORT WAYNE     CLOUDY    35  28  75 S10       29.76F WCI  27
6HR MIN TEMP:  30; 6HR MAX TEMP:  36; 6HR PCP:  0.01;

PERU/GRISSOM   MOCLDY    37  28  69 S16       29.72F
6HR MIN TEMP:  33; 6HR MAX TEMP:  38;


$$
INZ028>050-291300-
CENTRAL INDIANA

CITY           SKY/WX    TMP DP  RH WIND       PRES   REMARKS
LAFAYETTE      PTCLDY    40  31  70 SW9       29.73F
6HR MIN TEMP:  35; 6HR MAX TEMP:  41;

KOKOMO*        MOCLDY    37  27  65 S16       29.74F
6HR MIN TEMP:  32; 6HR MAX TEMP:  37;

MUNCIE*        CLOUDY    38  28  67 S15G24    29.77F
6HR MIN TEMP:  33; 6HR MAX TEMP:  39; 6HR PCP: TRACE;

INDIANAPOLIS   MOCLDY    36  28  73 S8        29.78F
6HR MIN TEMP:  31; 6HR MAX TEMP:  36; 6HR PCP: TRACE;


$$
MIZ043>046-050>051-056>058-064>065-071>073-077>080-291300-
SOUTHWEST LOWER MICHIGAN

CITY           SKY/WX    TMP DP  RH WIND       PRES   REMARKS
BATTLE CREEK   CLOUDY    33  23  66 S10       29.73F WCI  25
6HR MIN TEMP:  28; 6HR MAX TEMP:  33; 6HR PCP: TRACE;

BENTON HARBOR  CLOUDY    33  26  75 SE6       29.70F WCI  28
6HR MIN TEMP:  30; 6HR MAX TEMP:  33; 6HR PCP:  0.03;

COLDWATER*     CLOUDY    31  24  75 S7        29.74F WCI  24
6HR MIN TEMP:  28; 6HR MAX TEMP:  31;

HILLSDALE*     CLOUDY    29  25  84 SE8       29.75F WCI  21
6HR MIN TEMP:  25; 6HR MAX TEMP:  29;

HOLLAND        CLOUDY    32  27  81 E6        29.73F WCI  26
6HR MIN TEMP:  29; 6HR MAX TEMP:  32; 6HR PCP:  0.02;

GRAND RAPIDS   CLOUDY    30  26  85 E6        29.74F WCI  24
6HR MIN TEMP:  27; 6HR MAX TEMP:  30; 6HR PCP:  0.05;

KALAMAZOO      CLOUDY    32  24  72 SE6       29.73F WCI  26
6HR MIN TEMP:  28; 6HR MAX TEMP:  32; 6HR PCP: TRACE;

STURGIS*       CLOUDY    32  25  74 S6        29.72F WCI  26
THREE RIVERS*  CLOUDY    32  25  73 S6        29.73F WCI  27

$$
OHZ001>008-015>018-024>025-291300-
NORTHWEST OHIO

CITY           SKY/WX    TMP DP  RH WIND       PRES   REMARKS
DEFIANCE       CLOUDY    34  25  69 S7        29.80F WCI  28
6HR MIN TEMP:  29; 6HR MAX TEMP:  34; 6HR PCP:  0.01;

FINDLAY        MIX PCPN  32  23  69 S20       29.82F WCI  20
6HR MIN TEMP:  27; 6HR MAX TEMP:  32; 6HR PCP: TRACE;

TOLEDO EXPRESS CLOUDY    29  23  78 VRB5      29.81F WCI  24
6HR MIN TEMP:  25; 6HR MAX TEMP:  29; 6HR PCP: TRACE;

TOLEDO METCALF CLOUDY    32  22  66 S10       29.84F WCI  24
6HR MIN TEMP:  28; 6HR MAX TEMP:  32; 6HR PCP: TRACE;

LIMA           CLOUDY    37  25  61 S18G30    29.81F
6HR MIN TEMP:  29; 6HR MAX TEMP:  37; 6HR PCP: TRACE;


$$
AND FOR LAKE MICHIGAN COASTAL AND OPEN LAKE BUOY OBSERVATIONS

STATION/POSITION TEMP    WIND        PRES    VSBY  WAVE
                 AIR SEA DIR/SP/G                  HT/PER
                 (F)     (DEG/KT/KT) (MB)    (MI)  (FT/S)
CALUMET HARBOR    36     180/  5/  7   N/A
MICHIGAN CITY     37     140/ 16/ 23   N/A
SAINT JOSEPH      35     140/  3/ 12 1007.1S

$$
&&



USA.gov is the U.S. government's official web portal to all federal, state and local government web resources and services.